SCP
0 0 0 0 0 0 0 0 0 0 0 0 0 0 0 0 0 0 0 0 0 0 0 0 0 0 0 0 0 0 0 0 0 0 0 0 0 0 0 0 0 0 0
0 0 0 0 0 0 0 0 0 0 0 0 0 0 0 0 0 0 0 0 0 0 0 0 0 0 0 0 0 0 0 0 0 0 0 0 0 0 0 0 0 0 0
0 0 0 0 0 0 0 0 0 0 0 0 0 0 0 0 0 0 0 0 0 0 0 0 0 0 0 0 0 0 0 0 0 0 0 0 0 0 0 0 0 0 0
0 0 0 0 0 0 0 0 0 0 0 0 0 0 0 0 0 0 0 0 0 0 0 0 0 0 0 0 0 0 0 0 0 0 0 0 0 0 0 0 0 0 0
0 0 0 0 0 0 0 0 0 0 0 0 0 0 0 0 0 0 0 0 0 0 0 0 0 0 0 0 0 0 0 0 0 0 0 0 0 0 0 0 0 0 0
0 0 0 0 0 0 0 0 0 0 0 0 0 0 0 0 0 0 0 0 0 0 0 0 0 0 0 0 0 0 0 0 0 0 0 0 0 0 0 0 0 0 0
0 0 0 0 0 0 0 0 0 0 0 0 0 0 0 0 0 0 0 0 0 0 0 0 0 0 0 0 0 0 0 0 0 0 0 0 0 0 0 0 0 0 0
0 0 0 0 0 0 0 0 0 0 0 0 0 0 0 0 0 0 0 0 0 0 0 0 0 0 0 0 0 0 0 0 0 0 0 0 0 0 0 0 0 0 0
0 0 0 0 0 0 0 0 0 0 0 0 0 0 0 0 0 0 0 0 0 0 0 0 0 0 0 0 0 0 0 0 0 0 0 0 0 0 0 0 0 0 0
0 0 0 0 0 0 0 0 0 0 0 0 0 0 0 0 0 0 0 0 0 0 0 0 0 0 0 0 0 0 0 0 0 0 0 0 0 0 0 0 0 0 0
0 0 0 0 0 0 0 0 0 0 0 0 0 0 0 0 0 0 0 0 0 0 0 0 0 0 0 0 0 0 0 0 0 0 0 0 0 0 0 0 0 0 0
0 0 0 0 0 0 0 0 0 0 0 0 0 0 0 0 0 0 0 0 0 0 0 0 0 0 0 0 0 0 0 0 0 0 0 0 0 0 0 0 0 0 0
0 0 0 0 0 0 0 0 0 0 0 0 0 0 0 0 0 0 0 0 0 0 0 0 0 0 0 0 0 0 0 0 0 0 0 0 0 0 0 0 0 0 0
0 0 0 0 0 0 0 0 0 0 0 0 0 0 0 0 0 0 0 0 0 0 0 0 0 0 0 0 0 0 0 0 0 0 0 0 0 0 0 0 0 0 0
0 0 0 0 0 0 0 0 0 0 0 0 0 0 0 0 0 0 0 0 0 0 0 0 0 0 0 0 0 0 0 0 0 0 0 0 0 0 0 0 0 0 0
0 0 0 0 0 0 0 0 0 0 0 0 0 0 0 0 0 0 0 0 0 0 0 0 0 0 0 0 0 0 0 0 0 0 0 0 0 0 0 0 0 0 0
0 0 0 0 0 0 0 0 0 0 0 0 0 0 0 0 0 0 0 0 0 0 0 0 0 0 0 0 0 0 0 0 0 0 0 0 0 0 0 0 0 0 0
0 0 0 0 0 0 0 0 0 0 0 0 0 0 0 0 0 0 0 0 0 0 0 0 0 0 0 0 0 0 0 0 0 0 0 0 0 0 0 0 0 0 0
0 0 0 0 0 0 0 0 0 0 0 0 0 0 0 0 0 0 0 0 0 0 0 0 0 0 0 0 0 0 0 0 0 0 0 0 0 0 0 0 0 0 0
0 0 0 0 0 0 0 0 0 0 0 0 0 0 0 0 0 0 0 0 0 0 0 0 0 0 0 0 0 0 0 0 0 0 0 0 0 0 0 0 0 0 0
0 0 0 0 0 0 0 0 0 0 0 0 0 0 0 0 0 0 0 0 0 0 0 0 0 0 0 0 0 0 0 0 0 0 0 0 0 0 0 0 0 0 0
0 0 0 0 0 0 0 0 0 0 0 0 0 0 0 0 0 0 0 0 0 0 0 0 0 0 0 0 0 0 0 0 0 0 0 0 0 0 0 0 0 0 0
0 0 0 0 0 0 0 0 0 0 0 0 0 0 0 0 0 0 0 0 0 0 0 0 0 0 0 0 0 0 0 0 0 0 0 0 0 0 0 0 0 0 0
0 0 0 0 0 0 0 0 0 0 0 0 0 0 0 0 0 0 0 0 0 0 0 0 0 0 0 0 0 0 0 0 0 0 0 0 0 0 0 0 0 0 0
0 0 0 0 0 0 0 0 0 0 0 0 0 0 0 0 0 0 0 0 0 0 0 0 0 0 0 0 0 0 0 0 0 0 0 0 0 0 0 0 0 0 0
0 0 0 0 0 0 0 0 0 0 0 0 0 0 0 0 0 0 0 0 0 0 0 0 0 0 0 0 0 0 0 0 0 0 0 0 0 0 0 0 0 0 0
Wind_Speed_500mb
72 65 54 46 42 37 35 32 27 18 13 8 5 7 7 8 9 11 14 17 19 21 25 28 30 31 33 35 37 40 42 46 57 67 66 68 67 66 63 59 59 63 68
59 52 44 37 36 44 39 33 22 16 12 8 7 9 9 10 12 15 18 20 23 27 30 32 33 35 37 38 40 42 45 47 54 65 67 69 68 66 64 66 73 73 76
53 44 43 46 42 42 37 28 20 16 11 11 11 10 11 13 15 17 20 24 26 30 33 36 36 37 39 40 42 45 47 49 53 60 70 69 70 67 66 76 79 83 83
44 48 49 48 43 38 31 23 18 15 15 13 12 13 15 16 19 20 23 27 30 33 35 37 38 40 42 42 45 47 49 53 56 59 67 72 69 61 72 79 90 85 87
52 45 45 43 38 32 25 21 19 18 17 16 15 16 17 19 22 22 25 29 31 33 37 38 40 41 43 43 47 50 50 53 55 58 65 66 64 73 76 84 83 83 75
49 50 45 39 33 28 24 23 21 19 18 17 18 20 22 23 25 25 27 29 33 37 38 39 41 42 44 46 46 48 47 46 46 51 58 64 64 71 78 73 70 92 94
52 48 42 36 30 24 25 22 20 19 19 21 23 25 27 27 28 28 30 35 37 41 42 42 44 45 45 48 48 48 47 44 39 47 55 55 69 67 68 82 88 86 90
50 45 38 35 27 27 25 20 20 20 24 27 28 30 29 29 32 32 36 41 42 44 46 46 46 45 46 48 49 50 49 51 51 50 52 60 62 70 76 76 79 84 86
48 44 39 28 27 26 21 19 21 26 28 31 32 33 33 31 34 37 42 43 46 49 49 48 46 46 45 45 45 46 49 50 50 59 65 65 69 69 68 72 70 70 86
50 40 30 27 29 26 20 21 25 29 32 35 36 35 35 35 40 42 46 47 51 51 50 49 45 45 45 45 42 41 47 50 64 68 65 62 64 65 61 56 58 64 67
42 36 36 34 29 21 21 26 29 33 35 36 37 35 39 41 44 46 49 52 51 52 52 47 42 42 43 42 29 41 50 49 58 62 65 65 67 64 61 61 60 57 59
42 41 37 30 23 25 28 30 33 34 36 37 40 43 45 45 46 49 51 52 52 52 48 43 40 40 41 30 40 46 46 58 59 62 65 69 69 68 69 68 64 58 53
44 39 33 28 30 31 33 34 35 35 40 42 45 49 48 46 45 51 53 53 51 46 44 40 40 37 35 42 42 49 56 57 59 61 66 68 67 69 68 67 65 61 62
43 37 31 31 32 35 36 33 35 40 43 45 48 51 50 52 51 49 51 50 46 42 41 41 36 34 35 42 46 49 52 54 57 63 64 65 67 67 66 64 67 68 72
40 37 33 33 35 34 34 38 40 39 43 48 49 52 53 53 49 50 48 46 40 35 37 33 32 34 39 44 48 50 50 52 56 59 62 66 65 64 63 61 60 63 63
40 35 33 33 32 35 37 36 36 39 44 48 51 55 53 52 49 47 41 40 34 24 31 36 37 41 44 47 49 49 49 56 58 59 61 61 61 61 62 59 57 57 60
39 33 30 34 34 34 31 30 33 34 44 52 55 55 53 50 48 43 37 29 22 31 43 44 42 42 44 48 48 49 53 55 55 57 57 56 56 55 54 54 53 55 60
35 33 35 34 31 29 25 27 32 38 44 45 44 46 47 45 40 39 35 31 41 41 43 41 40 41 44 45 45 48 52 50 52 52 51 49 48 49 47 47 52 61 69
38 34 33 32 31 28 29 32 37 42 46 47 49 45 41 40 37 34 37 40 36 35 36 38 39 42 41 41 44 50 48 49 51 50 47 45 42 41 40 47 56 63 70
37 36 37 36 34 36 37 39 41 43 47 51 52 44 41 38 34 31 34 35 33 33 35 36 38 38 39 41 46 45 45 46 46 46 43 40 36 35 42 52 61 72 77
42 40 41 42 41 39 42 44 43 45 49 53 51 43 42 39 33 33 32 31 32 33 33 36 36 36 38 43 42 42 45 44 44 43 41 37 35 34 43 54 66 76 83
48 45 46 46 44 46 45 45 45 47 49 52 46 40 40 41 32 30 29 29 31 32 35 35 34 34 38 40 40 42 42 41 40 41 39 35 33 37 48 60 72 82 87
53 51 50 49 48 47 48 46 47 48 48 51 48 41 39 39 34 30 28 30 32 34 35 33 32 34 38 36 38 40 40 39 38 37 35 31 33 40 54 68 79 87 89
56 54 52 51 52 51 49 48 49 47 51 50 49 42 39 37 34 31 32 33 33 36 34 32 33 34 33 34 36 39 39 38 34 29 28 32 39 48 61 72 83 88 90
53 52 52 52 53 53 52 51 51 50 55 54 49 43 39 37 35 33 35 35 36 35 33 33 33 33 31 31 33 34 35 31 27 22 27 35 43 54 66 80 86 82 84
45 49 51 53 55 54 54 52 50 57 57 54 47 42 40 38 36 37 37 36 35 34 33 34 34 32 31 32 33 33 31 28 21 20 28 36 46 58 72 87 84 88 91
Wind_Direction_500mb
165 162 157 153 170 185 194 197 194 181 190 205 235 264 273 286 303 310 310 311 311 311 317 316 311 309 312 310 309 310 310 308 302 311 318 320 320 322 322 322 323 324 322
157 160 164 172 170 192 192 194 183 196 208 227 255 263 278 297 308 305 306 309 314 315 309 305 305 305 306 307 309 310 310 310 310 315 319 319 322 322 322 326 327 323 322
166 165 169 169 180 193 190 189 195 206 223 240 252 272 289 298 300 299 305 307 306 303 302 299 302 303 307 309 310 311 313 314 313 312 315 320 322 324 324 323 323 321 323
167 177 181 185 185 189 191 193 206 222 236 248 263 273 282 294 294 296 301 305 303 299 297 298 304 306 309 310 311 312 311 312 311 314 316 319 322 324 319 321 320 322 323
180 182 190 186 185 190 196 205 220 230 241 251 263 274 284 285 289 297 300 297 294 297 301 302 305 307 307 309 309 310 311 310 313 314 314 318 321 318 321 321 319 323 318
182 187 189 188 190 196 205 218 226 237 249 260 269 271 278 281 285 290 293 294 301 305 302 302 303 305 304 303 305 305 305 307 305 309 313 311 316 316 321 321 315 310 315
188 188 191 192 195 204 216 225 239 251 264 267 266 269 274 280 285 292 300 306 303 302 301 303 303 303 303 303 305 304 305 307 309 309 309 315 313 317 313 306 310 310 310
189 193 191 196 205 214 224 238 254 266 265 265 263 265 275 279 283 295 300 299 302 301 301 299 301 303 302 305 306 307 309 312 312 313 310 305 304 305 306 308 308 309 308
194 193 201 197 212 225 239 253 263 264 267 268 262 266 272 279 292 297 295 297 301 300 298 297 301 302 303 304 303 302 306 309 309 304 306 307 308 308 308 308 313 316 315
196 198 197 211 221 232 247 261 269 271 269 266 265 269 277 290 293 294 294 296 294 296 297 297 300 301 301 301 301 309 302 304 304 304 307 308 308 309 313 316 317 317 317
195 199 209 216 225 240 261 271 271 270 269 270 271 278 286 291 291 292 292 292 294 297 297 298 296 293 297 301 302 287 294 301 300 307 310 313 315 320 325 325 323 320 316
203 206 214 221 235 252 264 273 272 273 279 283 284 284 286 288 288 289 288 291 294 294 296 295 294 294 296 295 282 294 302 308 309 311 314 319 324 327 327 325 324 322 319
211 211 219 230 244 256 269 274 275 286 288 285 283 282 285 287 284 284 290 293 294 292 290 292 287 288 286 293 299 303 307 309 310 315 321 323 324 323 323 322 325 326 324
212 218 226 241 253 264 270 278 285 286 286 285 284 286 288 286 291 293 291 289 289 288 288 284 286 293 302 303 304 304 307 311 316 322 323 322 321 322 325 329 330 331 329
218 223 233 246 256 266 277 278 280 287 290 290 291 288 291 295 294 291 291 291 287 283 279 283 294 302 300 299 304 308 311 315 321 323 321 320 322 325 329 333 334 333 333
222 230 241 251 265 271 271 275 285 294 295 296 297 297 297 295 293 294 293 293 291 293 290 295 299 298 299 301 306 310 317 322 322 319 320 322 325 329 332 338 337 338 337
223 231 247 262 264 264 270 285 297 296 302 304 301 299 297 297 298 299 299 296 283 265 272 289 292 295 296 302 307 314 320 320 319 320 322 325 327 331 335 339 340 340 338
221 236 254 257 254 256 267 279 291 302 304 304 296 292 293 293 288 283 281 268 267 275 278 282 286 288 295 301 307 315 318 318 318 319 322 327 329 331 336 338 338 336 334
229 248 258 251 251 255 261 275 285 293 302 309 307 300 293 288 286 280 268 269 270 270 274 281 284 290 295 304 312 315 316 318 318 321 326 330 330 329 334 334 334 334 332
245 261 253 246 243 249 261 273 286 296 306 310 308 302 291 288 285 275 270 271 273 272 275 279 285 292 300 308 311 313 316 317 317 321 326 329 327 327 330 330 332 332 332
253 255 246 243 246 258 268 278 287 302 306 307 306 295 289 287 279 271 270 269 269 273 276 283 288 295 303 307 310 314 317 319 320 324 328 329 325 324 327 329 331 331 332
255 255 247 246 253 262 274 280 291 301 301 305 301 290 285 285 277 268 267 267 268 269 276 283 289 298 301 308 311 314 318 321 325 326 330 327 323 323 328 331 331 332 334
258 256 251 252 259 266 276 284 291 297 299 304 296 285 278 278 274 265 265 266 267 271 278 285 293 296 304 307 310 315 321 325 329 330 331 332 331 334 333 333 334 336 337
252 251 251 256 263 271 281 285 289 292 299 300 294 281 274 271 269 267 265 266 268 272 279 286 291 297 303 306 313 318 322 324 329 332 335 338 336 335 333 334 336 338 338
251 253 256 262 270 277 283 286 289 289 295 295 290 277 271 267 264 264 264 264 267 273 279 285 290 299 301 306 312 315 317 318 322 328 334 331 330 334 335 338 342 342 340
257 257 261 268 274 279 283 285 290 291 292 293 284 270 267 264 261 261 262 262 266 270 275 284 293 299 302 309 313 317 317 314 309 311 319 328 332 334 338 343 345 341 339
Wind_Speed_850mb
72 65 54 46 42 37 35 32 27 18 13 8 5 7 7 8 9 11 14 17 19 21 25 28 30 31 33 35 37 40 42 46 57 67 66 68 67 66 63 59 59 63 68
59 52 44 37 36 44 39 33 22 16 12 8 7 9 9 10 12 15 18 20 23 27 30 32 33 35 37 38 40 42 45 47 54 65 67 69 68 66 64 66 73 73 76
53 44 43 46 42 42 37 28 20 16 11 11 11 10 11 13 15 17 20 24 26 30 33 36 36 37 39 40 42 45 47 49 53 60 70 69 70 67 66 76 79 83 83
44 48 49 48 43 38 31 23 18 15 15 13 12 13 15 16 19 20 23 27 30 33 35 37 38 40 42 42 45 47 49 53 56 59 67 72 69 61 72 79 90 85 87
52 45 45 43 38 32 25 21 19 18 17 16 15 16 17 19 22 22 25 29 31 33 37 38 40 41 43 43 47 50 50 53 55 58 65 66 64 73 76 84 83 83 75
49 50 45 39 33 28 24 23 21 19 18 17 18 20 22 23 25 25 27 29 33 37 38 39 41 42 44 46 46 48 47 46 46 51 58 64 64 71 78 73 70 92 94
52 48 42 36 30 24 25 22 20 19 19 21 23 25 27 27 28 28 30 35 37 41 42 42 44 45 45 48 48 48 47 44 39 47 55 55 69 67 68 82 88 86 90
50 45 38 35 27 27 25 20 20 20 24 27 28 30 29 29 32 32 36 41 42 44 46 46 46 45 46 48 49 50 49 51 51 50 52 60 62 70 76 76 79 84 86
48 44 39 28 27 26 21 19 21 26 28 31 32 33 33 31 34 37 42 43 46 49 49 48 46 46 45 45 45 46 49 50 50 59 65 65 69 69 68 72 70 70 86
50 40 30 27 29 26 20 21 25 29 32 35 36 35 35 35 40 42 46 47 51 51 50 49 45 45 45 45 42 41 47 50 64 68 65 62 64 65 61 56 58 64 67
42 36 36 34 29 21 21 26 29 33 35 36 37 35 39 41 44 46 49 52 51 52 52 47 42 42 43 42 29 41 50 49 58 62 65 65 67 64 61 61 60 57 59
42 41 37 30 23 25 28 30 33 34 36 37 40 43 45 45 46 49 51 52 52 52 48 43 40 40 41 30 40 46 46 58 59 62 65 69 69 68 69 68 64 58 53
44 39 33 28 30 31 33 34 35 35 40 42 45 49 48 46 45 51 53 53 51 46 44 40 40 37 35 42 42 49 56 57 59 61 66 68 67 69 68 67 65 61 62
43 37 31 31 32 35 36 33 35 40 43 45 48 51 50 52 51 49 51 50 46 42 41 41 36 34 35 42 46 49 52 54 57 63 64 65 67 67 66 64 67 68 72
40 37 33 33 35 34 34 38 40 39 43 48 49 52 53 53 49 50 48 46 40 35 37 33 32 34 39 44 48 50 50 52 56 59 62 66 65 64 63 61 60 63 63
40 35 33 33 32 35 37 36 36 39 44 48 51 55 53 52 49 47 41 40 34 24 31 36 37 41 44 47 49 49 49 56 58 59 61 61 61 61 62 59 57 57 60
39 33 30 34 34 34 31 30 33 34 44 52 55 55 53 50 48 43 37 29 22 31 43 44 42 42 44 48 48 49 53 55 55 57 57 56 56 55 54 54 53 55 60
35 33 35 34 31 29 25 27 32 38 44 45 44 46 47 45 40 39 35 31 41 41 43 41 40 41 44 45 45 48 52 50 52 52 51 49 48 49 47 47 52 61 69
38 34 33 32 31 28 29 32 37 42 46 47 49 45 41 40 37 34 37 40 36 35 36 38 39 42 41 41 44 50 48 49 51 50 47 45 42 41 40 47 56 63 70
37 36 37 36 34 36 37 39 41 43 47 51 52 44 41 38 34 31 34 35 33 33 35 36 38 38 39 41 46 45 45 46 46 46 43 40 36 35 42 52 61 72 77
42 40 41 42 41 39 42 44 43 45 49 53 51 43 42 39 33 33 32 31 32 33 33 36 36 36 38 43 42 42 45 44 44 43 41 37 35 34 43 54 66 76 83
48 45 46 46 44 46 45 45 45 47 49 52 46 40 40 41 32 30 29 29 31 32 35 35 34 34 38 40 40 42 42 41 40 41 39 35 33 37 48 60 72 82 87
53 51 50 49 48 47 48 46 47 48 48 51 48 41 39 39 34 30 28 30 32 34 35 33 32 34 38 36 38 40 40 39 38 37 35 31 33 40 54 68 79 87 89
56 54 52 51 52 51 49 48 49 47 51 50 49 42 39 37 34 31 32 33 33 36 34 32 33 34 33 34 36 39 39 38 34 29 28 32 39 48 61 72 83 88 90
53 52 52 52 53 53 52 51 51 50 55 54 49 43 39 37 35 33 35 35 36 35 33 33 33 33 31 31 33 34 35 31 27 22 27 35 43 54 66 80 86 82 84
45 49 51 53 55 54 54 52 50 57 57 54 47 42 40 38 36 37 37 36 35 34 33 34 34 32 31 32 33 33 31 28 21 20 28 36 46 58 72 87 84 88 91
Wind_Direction_850mb
165 162 157 153 170 185 194 197 194 181 190 205 235 264 273 286 303 310 310 311 311 311 317 316 311 309 312 310 309 310 310 308 302 311 318 320 320 322 322 322 323 324 322
157 160 164 172 170 192 192 194 183 196 208 227 255 263 278 297 308 305 306 309 314 315 309 305 305 305 306 307 309 310 310 310 310 315 319 319 322 322 322 326 327 323 322
166 165 169 169 180 193 190 189 195 206 223 240 252 272 289 298 300 299 305 307 306 303 302 299 302 303 307 309 310 311 313 314 313 312 315 320 322 324 324 323 323 321 323
167 177 181 185 185 189 191 193 206 222 236 248 263 273 282 294 294 296 301 305 303 299 297 298 304 306 309 310 311 312 311 312 311 314 316 319 322 324 319 321 320 322 323
180 182 190 186 185 190 196 205 220 230 241 251 263 274 284 285 289 297 300 297 294 297 301 302 305 307 307 309 309 310 311 310 313 314 314 318 321 318 321 321 319 323 318
182 187 189 188 190 196 205 218 226 237 249 260 269 271 278 281 285 290 293 294 301 305 302 302 303 305 304 303 305 305 305 307 305 309 313 311 316 316 321 321 315 310 315
188 188 191 192 195 204 216 225 239 251 264 267 266 269 274 280 285 292 300 306 303 302 301 303 303 303 303 303 305 304 305 307 309 309 309 315 313 317 313 306 310 310 310
189 193 191 196 205 214 224 238 254 266 265 265 263 265 275 279 283 295 300 299 302 301 301 299 301 303 302 305 306 307 309 312 312 313 310 305 304 305 306 308 308 309 308
194 193 201 197 212 225 239 253 263 264 267 268 262 266 272 279 292 297 295 297 301 300 298 297 301 302 303 304 303 302 306 309 309 304 306 307 308 308 308 308 313 316 315
196 198 197 211 221 232 247 261 269 271 269 266 265 269 277 290 293 294 294 296 294 296 297 297 300 301 301 301 301 309 302 304 304 304 307 308 308 309 313 316 317 317 317
195 199 209 216 225 240 261 271 271 270 269 270 271 278 286 291 291 292 292 292 294 297 297 298 296 293 297 301 302 287 294 301 300 307 310 313 315 320 325 325 323 320 316
203 206 214 221 235 252 264 273 272 273 279 283 284 284 286 288 288 289 288 291 294 294 296 295 294 294 296 295 282 294 302 308 309 311 314 319 324 327 327 325 324 322 319
211 211 219 230 244 256 269 274 275 286 288 285 283 282 285 287 284 284 290 293 294 292 290 292 287 288 286 293 299 303 307 309 310 315 321 323 324 323 323 322 325 326 324
212 218 226 241 253 264 270 278 285 286 286 285 284 286 288 286 291 293 291 289 289 288 288 284 286 293 302 303 304 304 307 311 316 322 323 322 321 322 325 329 330 331 329
218 223 233 246 256 266 277 278 280 287 290 290 291 288 291 295 294 291 291 291 287 283 279 283 294 302 300 299 304 308 311 315 321 323 321 320 322 325 329 333 334 333 333
222 230 241 251 265 271 271 275 285 294 295 296 297 297 297 295 293 294 293 293 291 293 290 295 299 298 299 301 306 310 317 322 322 319 320 322 325 329 332 338 337 338 337
223 231 247 262 264 264 270 285 297 296 302 304 301 299 297 297 298 299 299 296 283 265 272 289 292 295 296 302 307 314 320 320 319 320 322 325 327 331 335 339 340 340 338
221 236 254 257 254 256 267 279 291 302 304 304 296 292 293 293 288 283 281 268 267 275 278 282 286 288 295 301 307 315 318 318 318 319 322 327 329 331 336 338 338 336 334
229 248 258 251 251 255 261 275 285 293 302 309 307 300 293 288 286 280 268 269 270 270 274 281 284 290 295 304 312 315 316 318 318 321 326 330 330 329 334 334 334 334 332
245 261 253 246 243 249 261 273 286 296 306 310 308 302 291 288 285 275 270 271 273 272 275 279 285 292 300 308 311 313 316 317 317 321 326 329 327 327 330 330 332 332 332
253 255 246 243 246 258 268 278 287 302 306 307 306 295 289 287 279 271 270 269 269 273 276 283 288 295 303 307 310 314 317 319 320 324 328 329 325 324 327 329 331 331 332
255 255 247 246 253 262 274 280 291 301 301 305 301 290 285 285 277 268 267 267 268 269 276 283 289 298 301 308 311 314 318 321 325 326 330 327 323 323 328 331 331 332 334
258 256 251 252 259 266 276 284 291 297 299 304 296 285 278 278 274 265 265 266 267 271 278 285 293 296 304 307 310 315 321 325 329 330 331 332 331 334 333 333 334 336 337
252 251 251 256 263 271 281 285 289 292 299 300 294 281 274 271 269 267 265 266 268 272 279 286 291 297 303 306 313 318 322 324 329 332 335 338 336 335 333 334 336 338 338
251 253 256 262 270 277 283 286 289 289 295 295 290 277 271 267 264 264 264 264 267 273 279 285 290 299 301 306 312 315 317 318 322 328 334 331 330 334 335 338 342 342 340
257 257 261 268 274 279 283 285 290 291 292 293 284 270 267 264 261 261 262 262 266 270 275 284 293 299 302 309 313 317 317 314 309 311 319 328 332 334 338 343 345 341 339